This is the latest recevied weather packets stored in our database for station/object N5TSS. If no packets are shown the sender has not sent any weather packets the latest 10 day(s).
| Time | Temp. | Humidity | Pressure | Rain* | Wind** | Luminosity | Snow |
|---|---|---|---|---|---|---|---|
| 1777761186 | 25° C | 47% | 1019.7 hPa | 0 mm | - | - | - |
| 1777760883 | 25° C | 46% | 1019.7 hPa | 0 mm | - | - | - |
| 1777760580 | 24.44° C | 45% | 1020.1 hPa | 0 mm | - | - | - |
| 1777760275 | 24.44° C | 49% | 1019.7 hPa | 0 mm | - | - | - |
| 1777759972 | 23.89° C | 48% | 1019.7 hPa | 0 mm | - | - | - |
| 1777759669 | 22.78° C | 52% | 1019.7 hPa | 0 mm | - | - | - |
| 1777759365 | 23.89° C | 50% | 1020.1 hPa | 0 mm | - | - | - |
| 1777759062 | 24.44° C | 49% | 1019.7 hPa | 0 mm | - | - | - |
| 1777758759 | 24.44° C | 49% | 1019.7 hPa | 0 mm | - | - | - |
| 1777758456 | 24.44° C | 46% | 1020.1 hPa | 0 mm | - | - | - |
| 1777758153 | 25° C | 45% | 1020.1 hPa | 0 mm | - | - | - |
| 1777757850 | 24.44° C | 47% | 1019.7 hPa | 0 mm | - | - | - |
| 1777757548 | 23.89° C | 49% | 1020.1 hPa | 0 mm | - | - | - |
| 1777757246 | 23.89° C | 50% | 1020.1 hPa | 0 mm | - | - | - |
| 1777756944 | 23.89° C | 49% | 1020.1 hPa | 0 mm | - | - | - |
| 1777756640 | 25° C | 47% | 1020.1 hPa | 0 mm | - | - | - |
| 1777756337 | 25.56° C | 46% | 1020.1 hPa | 0 mm | - | - | - |
| 1777756034 | 25.56° C | 48% | 1020.1 hPa | 0 mm | - | - | - |
| 1777755731 | 25° C | 45% | 1020.1 hPa | 0 mm | - | - | - |
| 1777755428 | 25° C | 43% | 1020.1 hPa | 0 mm | - | - | - |
| 1777755124 | 25.56° C | 47% | 1020.1 hPa | 0 mm | - | - | - |
| 1777754821 | 25° C | 43% | 1020.1 hPa | 0 mm | - | - | - |
| 1777754519 | 25° C | 46% | 1020.1 hPa | 0 mm | - | - | - |
| 1777754216 | 25° C | 47% | 1020.1 hPa | 0 mm | - | - | - |
| 1777753915 | 25° C | 45% | 1020.4 hPa | 0 mm | - | - | - |
* Rain latest hour (hover to see other rain measurements)
** Current wind speed in m/s (hover to see current wind gust speed)